This demonstration page uses our WeatherBlox Daily Observations layout. Learn more.

Left ArrowRight Arrow

36.19886, -115.1175

Hourly Observations for December 26, 2020

Temp ( °F °C ) Dew Point ( °F °C ) Humidity (%) Winds ( mph kmh ) Pressure ( in mb ) Visibility ( mi km ) Precip ( " mm )
12:53 am 00:53 Clear 39 3.9 8 -13.3 28 28 WNW 7 11 30.17 1022 10 16.0934 0 0
1:53 am 01:53 Clear 38 3.3 5 -15 25 25 W 5 7 30.16 1021 10 16.0934 0 0
2:53 am 02:53 Clear 37 2.8 6 -14.4 27 27 Calm 30.15 1021 10 16.0934 0 0
3:53 am 03:53 Clear 35 1.7 9 -12.8 34 34 NW 5 7 30.15 1021 10 16.0934 0 0
4:53 am 04:53 Clear 35 1.7 6 -14.4 29 29 WNW 5 7 30.14 1021 10 16.0934 0 0
5:53 am 05:53 Clear 35 1.7 7 -13.9 31 31 WNW 5 7 30.15 1021 10 16.0934 0 0
6:53 am 06:53 Sunny 34 1.1 5 -15 29 29 NW 6 9 30.17 1022 10 16.0934 0 0
7:53 am 07:53 Sunny 39 3.9 5 -15 24 24 WNW 3 6 30.16 1022 10 16.0934 0 0
8:53 am 08:53 Sunny 42 5.6 7 -13.9 23 23 Calm 30.16 1022 10 16.0934 0 0
9:53 am 09:53 Sunny 46 7.8 7 -13.9 20 20 E 3 6 30.16 1021 10 16.0934 0 0
10:53 am 10:53 Sunny 49 9.4 3 -16.1 15 15 ESE 5 7 30.13 1020 10 16.0934 0 0
11:53 am 11:53 Sunny 53 11.7 3 -16.1 13 13 NE 6 9 30.08 1019 10 16.0934 0 0
12:53 pm 12:53 Sunny 55 12.8 3 -16.1 12 12 ENE 8 13 30.05 1018 10 16.0934 0 0
1:53 pm 13:53 Sunny 56 13.3 4 -15.6 12 12 Calm 30.04 1017 10 16.0934 0 0
2:53 pm 14:53 Sunny 57 13.9 5 -15 12 12 NW 3 6 30.04 1017 10 16.0934 0 0
3:53 pm 15:53 Sunny 56 13.3 5 -15 13 13 Calm 30.02 1017 10 16.0934 0 0
4:53 pm 16:53 Clear 53 11.7 7 -13.9 15 15 Calm 30.04 1017 10 16.0934 0 0
5:53 pm 17:53 Clear 50 10 10 -12.2 20 20 WNW 6 9 30.06 1018 10 16.0934 0 0
6:53 pm 18:53 Clear 50 10 12 -11.1 22 22 Calm 30.08 1019 10 16.0934 0 0
7:53 pm 19:53 Clear 49 9.4 12 -11.1 22 22 VRB 5 7 30.08 1019 10 16.0934 0 0
8:53 pm 20:53 Clear 47 8.3 11 -11.7 23 23 WNW 6 9 30.09 1019 10 16.0934 0 0
9:53 pm 21:53 Clear 45 7.2 12 -11.1 26 26 Calm 30.09 1019 10 16.0934 0 0
10:53 pm 22:53 Clear 47 8.3 11 -11.7 23 23 N 7 11 30.09 1019 10 16.0934 0 0
11:53 pm 23:53 Clear 45 7.2 10 -12.2 24 24 VRB 3 6 30.1 1019 10 16.0934 0 0

Powered by AerisWeather